Torna al catalogo

FENGYUN 1C DEB

AttivoSSO
NORAD 31146·DEBRIS·🇨🇳 China

Lanciato May 10, 1999 da Taiyuan Satellite Launch Center

Loading…

Prossimi Passaggi (prossime 24 ore)

TLE

AggiornatoSource: Space-Track

Epoca: Sep 13, 2026, 07:10 UTC

1 31146U 99025BGY 26256.29893242  .00000893  00000-0  29623-3 0  9995
2 31146  99.0614 202.3195 0211919  93.0964 269.4486 14.28482533  6759

Traccia FENGYUN 1C DEB in tempo reale con AllMySat

Download on the App Store